This is the latest recevied weather packets stored in our database for station/object 9W2SSS-1. If no packets are shown the sender has not sent any weather packets the latest 10 day(s).
| Time | Temp. | Humidity | Pressure | Rain* | Wind** | Luminosity | Snow |
|---|---|---|---|---|---|---|---|
| 1788153046 | 93° F | 50% | 759.1 mmHg | - | - | - | - |
| 1788151846 | 93° F | 49% | 759.2 mmHg | - | - | - | - |
| 1788150646 | 93° F | 48% | 759.5 mmHg | - | - | - | - |
| 1788149446 | 92° F | 48% | 759.7 mmHg | - | - | - | - |
| 1788148246 | 93° F | 48% | 760.1 mmHg | - | - | - | - |
| 1788147046 | 92° F | 49% | 760.1 mmHg | - | - | - | - |
| 1788145846 | 91° F | 53% | 760.2 mmHg | - | - | - | - |
| 1788144645 | 91° F | 52% | 760.1 mmHg | - | - | - | - |
| 1788143444 | 91° F | 52% | 759.8 mmHg | - | - | - | - |
| 1788142244 | 91° F | 51% | 759.4 mmHg | - | - | - | - |
| 1788141044 | 93° F | 49% | 759.1 mmHg | - | - | - | - |
| 1788139844 | 92° F | 50% | 758.8 mmHg | - | - | - | - |
| 1788138644 | 91° F | 52% | 758.8 mmHg | - | - | - | - |
| 1788137444 | 90° F | 53% | 758.9 mmHg | - | - | - | - |
| 1788135046 | 87° F | 57% | 759.3 mmHg | - | - | - | - |
| 1788133846 | 86° F | 58% | 759.4 mmHg | - | - | - | - |
| 1788132646 | 86° F | 60% | 759.6 mmHg | - | - | - | - |
| 1788131446 | 86° F | 59% | 759.4 mmHg | - | - | - | - |
| 1788130246 | 86° F | 59% | 759.5 mmHg | - | - | - | - |
| 1788129046 | 86° F | 59% | 759.6 mmHg | - | - | - | - |
| 1788127846 | 86° F | 59% | 759.2 mmHg | - | - | - | - |
| 1788126646 | 86° F | 59% | 759.1 mmHg | - | - | - | - |
| 1788125446 | 86° F | 58% | 758.8 mmHg | - | - | - | - |
| 1788124246 | 86° F | 58% | 758.5 mmHg | - | - | - | - |
| 1788123046 | 86° F | 57% | 758.4 mmHg | - | - | - | - |
* Rain since midnight (hover to see other rain measurements)
** Current wind speed in m/s (hover to see current wind gust speed)